Guam Agana, GU

4:54 AM ChST on June 27, 2017 (GMT +1000)
Guam International

Weather History for PGUM - February, 2013

Change the Weather History Date:

Thursday, February 14, 2013

  Actual Average Record
Temperature  
Mean Temperature 78 °F -  
Max Temperature 83 °F 83 °F 87 °F (1997)
Min Temperature 73 °F 73 °F 73 °F (2000)
Cooling Degree Days 13    
Growing Degree Days 28 (Base 50)    
Moisture  
Dew Point 72 °F    
Average Humidity 82    
Maximum Humidity 94    
Minimum Humidity 68    
Precipitation  
Precipitation 0.00 in - - ()
Sea Level Pressure  
Sea Level Pressure 29.85 in    
Wind  
Wind Speed 16 mph (ENE)    
Max Wind Speed 23 mph    
Max Gust Speed 30 mph    
Visibility 10 miles    
Events      
Averages and records for this station are not official NWS values.
T = Trace of Precipitation, MM = Missing Value Source: NWS Daily Summary

Daily Weather History Graph

Daily Weather History Graph

Search for Another Location

Airport or City:

Trip Planner

Search our weather history database for the weather conditions in past years. The results will help you decide how hot, cold, wet, or windy it might be!

Date:

Astronomy

Feb. 14, 2013 Rise Set
Actual Time 6:44 AM ChST 6:25 PM ChST
Civil Twilight 6:22 AM ChST 6:47 PM ChST
Nautical Twilight 5:57 AM ChST 7:12 PM ChST
Astronomical Twilight 5:32 AM ChST 7:37 PM ChST
Moon 9:14 AM ChST (2/14) 9:54 PM ChST (2/14)
Length of Visible Light 12h 25m
Length of Day
11h 41m
Waxing Crescent, 16% of the Moon is Illuminated
Feb 14
Waxing Crescent
Feb 18
First Quarter
Feb 26
Full
Mar 5
Last Quarter
Mar 12
New

Hourly Weather History & Observations

Time (ChST) Temp. Heat Index Dew Point Humidity Pressure Visibility Wind Dir Wind Speed Gust Speed Precip Events Conditions
12:54 AM 75.0 °F - 73.0 °F 94% 29.89 in 10.0 mi ENE 19.6 mph - 0.00 in   Partly Cloudy
1:54 AM 75.0 °F - 71.1 °F 87% 29.88 in 10.0 mi ENE 15.0 mph - N/A   Partly Cloudy
2:54 AM 75.0 °F - 71.1 °F 87% 29.87 in 10.0 mi East 16.1 mph 21.9 mph N/A   Scattered Clouds
3:54 AM 75.0 °F - 71.1 °F 87% 29.86 in 10.0 mi ENE 12.7 mph - N/A   Partly Cloudy
4:54 AM 75.0 °F - 70.0 °F 84% 29.86 in 10.0 mi ENE 11.5 mph - N/A   Clear
5:54 AM 73.9 °F - 70.0 °F 87% 29.87 in 10.0 mi ENE 11.5 mph - N/A   Clear
6:54 AM 73.9 °F - 70.0 °F 87% 29.88 in 10.0 mi ENE 10.4 mph - N/A   Clear
7:54 AM 75.0 °F - 72.0 °F 90% 29.89 in 10.0 mi NE 11.5 mph - N/A   Partly Cloudy
8:54 AM 77.0 °F - 73.0 °F 88% 29.90 in 4.0 mi NE 17.3 mph - N/A   Partly Cloudy
9:54 AM 81.7 °F 86.9 °F 73.2 °F 75% 29.90 in 10.0 mi ENE 18.4 mph - N/A   Scattered Clouds
10:54 AM 82.6 °F 88.3 °F 73.2 °F 73% 29.89 in 10.0 mi ENE 20.7 mph 29.9 mph N/A   Partly Cloudy
11:54 AM 83.1 °F 88.4 °F 72.1 °F 69% 29.87 in 10.0 mi ENE 18.4 mph 29.9 mph N/A   Clear
12:54 PM 80.1 °F 83.6 °F 71.1 °F 74% 29.85 in 10.0 mi ENE 19.6 mph 27.6 mph N/A   Scattered Clouds
1:54 PM 80.1 °F 83.6 °F 71.1 °F 74% 29.82 in 10.0 mi ENE 18.4 mph 27.6 mph N/A   Partly Cloudy
2:37 PM 80.6 °F 85.4 °F 73.4 °F 79% 29.83 in 10.0 mi ENE 18.4 mph 26.5 mph N/A   Mostly Cloudy
2:54 PM 80.1 °F 83.8 °F 72.0 °F 76% 29.81 in 10.0 mi NE 23.0 mph 28.8 mph N/A   Mostly Cloudy
3:09 PM 80.6 °F 84.6 °F 71.6 °F 74% 29.82 in 10.0 mi ENE 19.6 mph 29.9 mph N/A   Mostly Cloudy
3:54 PM 80.1 °F 84.2 °F 73.0 °F 79% 29.80 in 10.0 mi ENE 19.6 mph 28.8 mph N/A   Partly Cloudy
4:54 PM 79.0 °F - 73.0 °F 82% 29.81 in 10.0 mi ENE 18.4 mph - N/A   Partly Cloudy
5:54 PM 78.1 °F - 73.0 °F 84% 29.81 in 10.0 mi ENE 13.8 mph 25.3 mph 0.00 in   Scattered Clouds
6:54 PM 77.0 °F - 73.0 °F 88% 29.82 in 10.0 mi ENE 16.1 mph - N/A   Partly Cloudy
7:54 PM 77.0 °F - 73.0 °F 88% 29.83 in 10.0 mi ENE 11.5 mph - N/A   Partly Cloudy
8:54 PM 75.9 °F - 73.0 °F 91% 29.84 in 10.0 mi ENE 12.7 mph - N/A   Partly Cloudy
9:54 PM 77.0 °F - 73.0 °F 88% 29.85 in 10.0 mi ENE 11.5 mph - N/A   Scattered Clouds
10:54 PM 77.0 °F - 73.0 °F 88% 29.86 in 10.0 mi ENE 13.8 mph - N/A   Mostly Cloudy
11:54 PM 77.0 °F - 73.0 °F 88% 29.85 in 10.0 mi ENE 11.5 mph - N/A   Partly Cloudy